Showing default

DROID.002, 63223

Orbit data source: Space-Track

DROID.002, 63223 is a payload satellite owned by Turion Space (US) in SSO that was launched on Sat, 15 Mar 2025 UTC via an FALCON 9 launch vehicle from the Air Force Western Test Range (AFWTR). Payload-class satellites include a variety of spacecraft equipped with specific instruments for various scientific and technological missions. These include communications satellites like Starlink; space stations such as the ISS; scientific satellites like the Hubble; Earth observation satellites from companies like Planet Labs, Umbra, and HawkEye 360; GPS; miniature CubeSats for education and research; and military/defense satellites.

Loading next visibility...
Identifier
63223, 2025-052P
Orbit
SSO
Country
Flag of USUS
Related business
Manufacturer
Turion Space
Mission
Operational Commercial Technology
Bus & Motor
DROID, Unknown motor
Mass
90 kg wet, 90 kg dry
Launch date (UTC)
2025-03-15 (7 months ago)
Launch vehicle
FALCON 9
Launch site
Air Force Western Test Range (AFWTR)
Object type
Payload
Rocket body
Debris
Shape & HBR
Box + 2 Pan, 0.8 m
Radar Cross Section
0.892 m², Large (>1 m²)

Expand to show TLE details & history
Last TLE update: 13 hours ago

TLE from 13 hours ago
0 DROID.002
1 63223U 25052P   25300.42670247  .00008396  00000-0  39213-3 0  9999
2 63223  97.4141 191.9334 0002622 208.0777 152.0317 15.20057669 34475
Epoch: 2025-10-27T10:14Z
TLE epoch observation values (Epoch: 2025-10-27T10:14:27.093Z)
Latitude
-0.00003°
Longitude
2.29181°
Altitude
510.351 km
Speed
7.608 km/s
True Right ascension
12h 47m 44s
True Declination
0° 00' 00"
Sunlit
Object was in daylight at epoch
Visualization orbit readout
Latitude
Unknown
Longitude
Unknown
Altitude
Unknown
Speed
Unknown
Apparent Right ascension
Unknown
Apparent Declination
Unknown
Sunlit
N/A
Visualization observer readout
Local Sidereal Time
18:50:11
Azimuth
Unknown
Elevation
Unknown
Doppler factor
Unknown
Orbital elements
Apogee altitude
504.437 km
Perigee altitude
500.828 km
Semi-major axis
6,880.77 km
Eccentricity
0.00026
Inclination
97.4141°
RAAN
191.9334°
Arg. of periapsis
208.0777°
True anomaly
152.04579°
Mean anomaly
152.0317°
Eccentric anomaly
152.03874°
Mean motion
3.80266 °/min
Orbital period
94.67 mins
BSTAR
0.00039213
Loading maneuver chart data...
Computing Atmospheric mass density...
Loading historical data...
Loading historical data...
Loading historical data...
Loading historical data...
Loading historical data...
Loading historical data...
Loading historical data...

Documentation

Showing up to 5 results
|